Temperature
15 12 11 13 13 13 14 13 12 11 8 7 6 6 5 4 4 3 4 4 4 4 3 2 1 -0 -1 -1 -1 -1 -1 -1 -2 -3 -3 -4 -4 -5 -6 -7 -7 -8 -8 -9
13 13 13 12 13 13 13 13 12 10 9 8 7 6 5 4 3 4 4 4 4 3 3 2 0 -1 -1 -1 -1 -1 -2 -2 -3 -4 -5 -5 -6 -6 -7 -7 -8 -9 -9 -10
14 13 13 13 12 13 13 13 12 11 9 7 7 7 5 4 4 4 4 4 4 3 2 1 -0 -1 -1 -1 -1 -2 -2 -3 -4 -5 -5 -5 -6 -6 -7 -8 -9 -10 -10 -11
12 12 13 13 12 12 13 12 12 10 9 7 8 8 7 3 3 3 3 4 3 3 2 1 -0 -1 -1 -1 -2 -2 -3 -4 -4 -5 -5 -6 -7 -8 -8 -9 -10 -10 -11 -11
13 12 13 13 12 12 12 11 10 9 9 8 7 7 7 3 3 2 2 3 3 2 1 0 -0 -1 -1 -2 -2 -2 -3 -4 -4 -5 -6 -7 -8 -9 -9 -10 -10 -11 -11 -12
12 12 12 12 12 11 11 10 9 7 7 9 9 8 8 3 3 3 2 3 3 2 1 0 -1 -1 -2 -2 -2 -3 -3 -4 -5 -5 -6 -7 -8 -9 -9 -10 -11 -12 -12 -12
14 13 12 12 13 12 11 11 10 11 10 10 8 8 7 6 3 3 2 2 2 1 1 -0 -1 -1 -2 -2 -2 -3 -3 -4 -5 -6 -7 -8 -9 -9 -10 -11 -12 -12 -12 -13
14 13 12 11 12 11 11 11 11 12 10 8 8 7 6 4 3 3 3 3 2 1 0 -0 -1 -2 -2 -2 -3 -3 -4 -5 -5 -6 -7 -8 -9 -10 -11 -12 -12 -13 -13 -13
13 13 12 11 11 11 11 9 9 8 8 8 7 7 6 3 2 1 1 1 1 1 -0 -1 -2 -2 -2 -3 -3 -4 -4 -5 -6 -6 -7 -8 -9 -10 -11 -12 -12 -12 -12 -13
11 11 12 11 11 10 10 7 7 8 10 9 8 8 8 5 2 -0 -0 0 1 0 -1 -1 -2 -2 -2 -3 -4 -4 -5 -5 -6 -6 -7 -8 -9 -10 -11 -12 -12 -12 -12 -12
10 10 11 11 11 11 9 9 7 6 7 8 8 9 7 6 3 1 0 1 1 0 -1 -1 -2 -2 -3 -3 -4 -4 -5 -5 -6 -6 -7 -8 -9 -11 -11 -12 -12 -12 -12 -12
8 8 9 10 10 10 10 10 7 9 8 6 5 8 6 4 4 3 1 1 1 -0 -1 -2 -2 -2 -3 -3 -4 -5 -5 -5 -6 -6 -7 -8 -9 -10 -11 -12 -12 -12 -12 -12
8 8 11 13 11 10 10 9 7 6 6 4 5 8 4 2 2 2 2 1 1 -0 -1 -2 -2 -3 -3 -4 -4 -5 -5 -5 -6 -6 -7 -8 -9 -10 -11 -12 -12 -12 -12 -12
8 7 10 13 13 10 10 9 7 6 6 5 5 7 7 2 0 0 1 1 0 -1 -1 -2 -2 -3 -3 -4 -4 -5 -5 -5 -6 -6 -7 -8 -9 -10 -11 -12 -12 -12 -12 -12
7 8 8 7 7 7 7 8 6 6 6 7 7 6 8 5 2 2 1 1 -0 -1 -1 -2 -2 -3 -3 -4 -4 -5 -5 -5 -6 -6 -7 -8 -9 -10 -11 -11 -12 -12 -12 -12
5 8 7 7 8 7 6 6 6 6 6 5 6 7 6 4 3 1 0 0 -0 -0 -1 -2 -2 -3 -3 -4 -4 -5 -5 -5 -6 -7 -7 -8 -9 -10 -10 -11 -12 -12 -12 -12
5 7 9 8 7 8 10 9 6 6 5 6 7 8 4 1 0 0 1 1 1 0 -1 -2 -2 -3 -3 -4 -4 -4 -5 -5 -6 -7 -7 -8 -9 -10 -10 -11 -12 -12 -12 -12
5 6 6 6 8 13 13 9 7 8 7 5 5 6 3 4 3 3 3 3 1 0 -1 -2 -2 -3 -3 -4 -4 -5 -5 -5 -6 -7 -7 -8 -9 -9 -10 -11 -12 -12 -12 -13
5 5 5 6 8 9 10 8 7 8 8 7 5 6 3 1 1 1 3 2 1 0 -1 -2 -2 -3 -3 -4 -4 -5 -5 -5 -6 -7 -7 -8 -9 -9 -10 -10 -11 -12 -12 -13
3 4 4 5 10 11 12 8 8 8 8 9 8 5 0 -1 0 2 4 2 0 -0 -1 -2 -2 -3 -3 -4 -4 -5 -5 -5 -6 -7 -7 -8 -9 -9 -10 -10 -11 -11 -12 -12
4 4 4 4 6 8 9 7 7 10 11 12 11 9 4 1 4 6 5 3 1 -0 -1 -2 -2 -2 -3 -4 -4 -4 -5 -5 -6 -6 -7 -8 -8 -9 -9 -10 -10 -11 -11 -12
5 4 3 3 5 8 8 5 7 11 13 13 12 11 9 8 6 5 5 3 1 -0 -1 -1 -2 -2 -3 -3 -4 -4 -5 -5 -6 -6 -7 -8 -8 -9 -9 -10 -10 -10 -11 -11
6 7 6 7 10 12 11 13 15 14 13 13 12 11 10 8 6 5 4 2 1 0 -0 -1 -2 -2 -3 -3 -4 -4 -5 -5 -6 -6 -7 -7 -8 -8 -9 -9 -10 -10 -10 -11
5 6 5 4 7 10 11 13 14 14 13 13 12 10 9 9 7 5 4 2 1 0 -0 -1 -2 -2 -2 -3 -4 -4 -5 -5 -5 -6 -6 -7 -7 -7 -8 -9 -9 -10 -10 -11
8 3 4 5 7 10 15 17 18 16 15 13 12 10 9 8 7 6 4 3 2 1 -0 -1 -2 -2 -2 -3 -4 -4 -4 -5 -5 -6 -6 -6 -7 -7 -7 -8 -9 -9 -10 -11
6 6 7 12 13 12 17 18 17 16 15 14 12 10 8 7 7 6 4 3 2 1 -0 -1 -1 -2 -2 -3 -3 -4 -4 -5 -5 -5 -6 -6 -6 -6 -7 -7 -7 -8 -9 -10
Wind_Speed
7 8 4 2 1 1 2 3 3 2 5 7 9 9 7 9 10 10 9 9 9 8 4 4 3 0 3 4 6 6 7 9 10 6 6 7 8 7 11 15 19 21 21 21
8 4 3 2 1 3 3 2 2 1 3 5 5 8 5 8 9 9 11 11 9 6 4 4 3 1 3 5 6 7 8 8 10 8 8 6 7 7 11 15 17 19 21 22
6 1 3 4 5 4 2 1 2 2 1 2 4 7 3 4 5 6 7 7 7 8 7 5 3 2 3 5 7 8 8 8 11 13 11 10 5 4 6 7 8 17 21 22
4 4 2 4 4 3 1 1 1 3 1 4 2 6 5 4 4 6 8 8 8 6 6 4 2 1 3 5 6 7 7 8 11 13 9 9 9 10 10 8 9 19 21 21
2 3 4 3 1 0 1 1 2 3 2 3 1 2 6 2 6 9 9 9 8 7 6 5 2 2 4 5 6 7 7 7 10 12 9 9 8 7 9 9 9 10 16 19
1 0 1 0 1 0 1 4 5 5 4 3 3 4 7 5 7 6 8 9 8 7 6 5 3 4 4 5 5 6 8 8 8 9 9 9 10 11 13 13 11 10 9 13
2 1 1 1 1 4 5 5 6 6 5 5 1 3 9 4 6 6 9 10 9 8 6 3 2 4 5 6 7 7 8 9 9 9 9 10 10 9 11 13 12 13 12 12
1 4 2 3 2 1 3 4 4 3 5 7 2 6 7 1 1 1 6 8 8 7 6 4 2 2 4 6 7 8 9 9 9 10 9 8 8 8 8 11 12 12 12 12
1 4 0 1 1 2 3 3 3 5 2 5 7 8 6 2 1 3 7 8 8 8 7 5 1 1 4 6 6 8 8 9 9 9 10 8 8 9 10 10 11 10 12 17
2 4 3 1 2 4 3 7 5 3 2 6 8 7 6 8 10 8 9 10 9 8 7 5 2 1 3 5 6 7 8 8 9 9 9 11 9 11 12 11 12 12 16 19
1 1 5 2 4 5 4 4 4 4 4 3 6 9 6 8 9 13 14 11 10 9 8 5 2 1 3 5 6 7 8 8 8 8 8 9 9 11 12 10 11 13 15 18
3 3 4 5 0 1 4 6 7 3 4 5 4 9 2 4 6 9 11 10 9 9 7 5 2 1 4 6 7 7 7 8 8 8 8 9 10 10 10 11 12 15 15 17
4 3 4 5 3 1 2 4 5 5 4 5 4 10 1 1 2 6 10 10 9 9 7 4 2 2 4 6 6 7 7 7 7 7 8 9 10 11 11 12 12 14 14 15
5 3 5 6 5 2 5 5 6 6 4 6 10 14 10 7 8 8 9 10 9 9 7 5 3 3 4 5 6 7 7 7 7 7 8 9 10 11 11 11 11 12 13 13
4 3 5 8 6 5 7 9 9 10 9 10 11 11 16 8 12 12 11 10 10 8 8 7 5 4 4 5 6 6 7 7 7 7 8 9 10 10 10 11 11 11 12 13
3 2 3 6 3 4 8 11 10 10 8 10 12 18 10 3 5 9 12 13 12 10 9 8 6 5 5 5 5 6 6 6 6 7 8 9 10 10 10 11 11 11 12 12
4 3 1 5 6 7 9 9 10 8 10 11 11 11 3 4 9 13 16 15 13 10 9 9 8 6 6 5 5 5 6 6 6 7 7 8 9 10 10 12 12 12 11 11
7 5 2 3 8 6 7 1 8 8 10 12 11 10 8 8 5 6 10 14 12 11 10 9 8 7 5 4 4 4 5 5 6 7 7 8 8 9 10 10 10 10 9 10
3 6 4 2 4 10 10 4 6 6 10 10 13 13 4 5 3 3 8 11 11 11 9 8 7 6 5 4 4 4 5 5 6 7 7 8 8 8 9 9 10 8 8 8
5 4 5 4 2 7 8 3 5 3 8 8 10 9 9 10 4 7 12 12 10 9 8 8 7 6 5 4 3 3 4 5 6 7 7 8 7 8 8 8 8 7 8 8
3 3 5 6 7 11 8 6 7 3 8 5 9 10 14 14 8 3 14 12 11 10 9 8 8 7 6 4 3 4 5 6 6 7 7 7 7 8 8 7 7 8 9 10
9 8 8 6 6 10 8 10 11 12 3 6 8 10 14 11 5 8 13 14 14 11 9 9 8 7 6 5 4 5 6 6 6 6 7 7 8 7 8 8 8 8 8 9
10 11 8 12 11 6 12 13 11 5 7 8 8 10 12 10 9 11 11 13 13 13 11 9 8 7 6 5 5 6 5 5 6 6 7 7 8 7 7 7 8 8 7 8
7 5 7 8 15 12 13 13 12 10 10 9 9 10 15 12 14 14 14 13 13 12 11 10 9 8 7 7 6 7 6 5 6 7 7 7 7 8 8 7 6 7 8 8
9 10 7 9 12 11 11 15 18 13 11 9 9 11 16 15 14 15 15 15 14 13 11 10 10 9 8 7 7 6 5 4 5 7 6 7 7 7 7 8 6 8 7 10
9 12 12 13 12 10 10 7 8 11 14 14 12 10 11 14 17 17 15 14 14 13 12 11 11 10 8 7 7 6 5 5 5 5 6 5 6 6 7 8 9 12 13 16
Wind_Direction
20 59 47 325 257 189 154 181 243 259 163 181 223 245 215 186 189 195 204 209 215 221 199 167 167 219 322 315 329 335 344 343 346 342 338 330 327 320 318 324 328 326 326 325
40 49 331 329 39 128 132 148 250 279 151 202 255 261 227 185 198 199 200 205 210 205 187 191 191 233 313 322 336 342 345 335 339 334 323 312 310 306 313 320 320 324 326 325
114 293 332 76 55 77 81 158 264 255 72 63 328 302 193 188 181 189 199 199 198 199 201 201 207 254 322 337 340 342 332 330 334 334 330 329 310 300 320 324 315 325 326 323
70 353 56 72 55 53 356 272 194 153 66 306 355 305 267 195 198 204 200 192 191 185 174 174 179 326 350 343 338 332 328 329 333 337 335 335 341 333 329 325 320 325 325 323
52 18 51 64 10 50 249 32 122 149 160 324 333 229 291 145 240 231 210 198 188 174 161 151 125 39 11 348 335 330 331 328 332 335 331 327 322 315 320 322 319 320 324 323
139 147 88 286 316 47 130 81 69 66 71 320 239 197 282 219 223 230 199 190 179 164 146 127 85 37 357 339 334 339 341 333 330 331 327 323 320 322 328 331 329 329 324 321
354 7 29 348 33 21 56 58 10 355 356 279 172 230 254 247 218 214 193 182 170 158 145 126 60 5 339 339 345 345 341 333 329 328 324 321 318 320 324 328 329 328 327 325
323 296 336 24 85 85 42 95 117 281 282 298 293 250 262 151 359 177 161 154 152 152 146 136 98 349 331 343 346 341 335 329 327 327 325 316 320 327 325 323 323 321 320 317
189 275 30 83 101 118 96 97 136 147 309 291 283 282 294 144 162 140 145 152 165 163 157 151 144 334 344 346 337 332 328 325 323 323 324 324 330 327 325 321 319 318 318 321
101 289 299 47 102 46 73 141 100 114 312 297 294 285 263 230 225 207 194 187 180 168 163 162 182 320 343 337 325 327 324 318 314 319 327 340 329 325 325 323 322 322 322 323
84 212 307 336 204 197 130 118 114 118 160 209 291 280 226 225 213 205 203 192 179 174 174 180 203 320 341 332 327 324 319 315 315 321 325 327 325 326 326 324 323 324 324 326
100 121 286 268 177 59 176 183 157 173 223 196 227 271 268 242 229 199 188 179 171 168 169 175 184 345 335 325 322 319 314 314 314 321 328 329 327 326 327 327 326 328 329 331
136 106 345 346 349 16 208 190 168 133 133 174 210 266 187 110 209 188 173 166 163 164 169 177 185 314 309 309 312 311 311 312 315 326 329 328 327 329 328 327 328 332 332 333
116 144 195 237 257 236 237 207 170 152 192 225 230 260 273 224 220 200 179 169 166 172 177 184 204 260 283 295 301 305 308 313 327 333 331 329 328 328 327 328 330 332 334 337
119 201 246 258 259 240 242 228 195 198 206 217 247 254 274 252 217 199 178 169 172 184 190 193 204 236 265 286 298 302 308 318 330 332 332 329 326 326 328 331 331 333 338 342
117 176 319 292 224 257 263 241 215 220 222 237 265 275 273 286 155 164 174 178 187 194 195 194 204 223 246 269 287 302 310 318 327 329 327 326 329 331 332 332 335 337 338 338
142 136 8 285 303 318 280 240 188 206 210 200 231 253 189 206 197 190 187 188 193 193 190 192 202 215 231 250 271 288 302 314 326 325 323 325 327 331 332 335 337 336 332 334
139 132 138 303 352 283 251 132 177 214 242 216 240 256 213 221 200 193 184 186 189 186 185 188 193 204 218 236 262 283 304 319 322 322 321 321 324 326 326 331 332 329 324 329
142 143 132 101 309 283 294 227 180 207 278 224 229 250 166 110 68 261 204 188 186 181 177 180 186 193 202 228 257 287 308 318 320 319 317 315 316 320 324 328 326 320 320 321
58 99 121 141 217 259 258 165 164 109 285 242 204 203 158 144 194 246 185 175 168 165 163 170 177 183 200 221 239 272 298 309 310 307 306 307 310 317 316 317 317 315 319 322
130 133 163 178 225 262 250 152 143 178 254 220 188 182 171 191 208 180 155 159 161 161 164 167 174 187 201 208 219 257 282 287 292 299 302 306 311 312 307 315 313 316 324 325
174 168 189 163 200 255 193 148 186 219 212 183 192 186 190 196 144 145 157 160 162 164 167 171 178 194 199 200 210 250 269 277 293 300 304 307 309 311 322 317 312 313 315 316
198 192 186 193 217 241 178 202 220 200 204 207 200 196 179 171 173 166 167 166 168 172 176 176 181 191 201 204 209 241 260 287 301 307 307 307 310 308 310 309 307 311 310 312
231 187 186 239 261 249 226 239 245 219 219 215 196 179 174 178 176 171 170 173 175 178 181 178 180 192 207 210 218 232 261 284 295 302 305 307 309 311 315 316 315 315 314 314
205 169 201 246 269 290 263 233 237 229 219 209 191 183 184 175 174 175 176 180 181 183 182 182 189 198 205 204 221 236 249 269 287 298 302 308 314 310 315 321 315 319 315 326
188 182 189 236 228 213 252 236 205 204 210 201 186 185 185 182 179 176 180 180 180 181 180 186 194 201 200 199 219 232 240 250 273 297 307 310 310 317 322 320 324 331 339 341
Height
1574 1580 1588 1587 1586 1586 1587 1591 1593 1594 1596 1600 1600 1599 1598 1600 1602 1603 1605 1606 1607 1608 1609 1609 1607 1605 1601 1597 1593 1589 1584 1579 1573 1566 1559 1553 1546 1541 1535 1529 1524 1518 1511 1505
1582 1587 1587 1586 1585 1586 1589 1591 1593 1595 1596 1598 1598 1597 1595 1596 1597 1599 1600 1602 1604 1606 1607 1607 1605 1602 1599 1595 1591 1586 1581 1576 1570 1563 1557 1550 1543 1537 1531 1525 1519 1513 1507 1500
1585 1589 1586 1587 1588 1588 1590 1590 1592 1594 1597 1598 1598 1593 1595 1595 1596 1598 1599 1600 1602 1604 1605 1604 1603 1600 1596 1592 1588 1584 1579 1574 1568 1561 1554 1547 1540 1533 1527 1519 1513 1508 1502 1496
1589 1588 1587 1588 1589 1589 1590 1589 1590 1594 1599 1601 1599 1601 1588 1594 1595 1595 1595 1597 1599 1601 1602 1601 1600 1597 1594 1590 1586 1582 1577 1571 1565 1558 1551 1544 1537 1530 1523 1516 1510 1504 1498 1492
1590 1589 1589 1589 1590 1589 1590 1589 1591 1594 1597 1601 1602 1604 1591 1595 1594 1592 1592 1593 1596 1598 1599 1598 1597 1594 1591 1588 1584 1580 1575 1569 1562 1556 1549 1542 1535 1528 1521 1514 1507 1500 1494 1488
1590 1589 1589 1590 1589 1589 1589 1592 1595 1600 1603 1601 1596 1600 1589 1594 1589 1586 1587 1590 1593 1595 1596 1595 1594 1592 1589 1586 1582 1577 1572 1566 1560 1553 1547 1540 1533 1526 1518 1511 1504 1497 1491 1484
1590 1590 1590 1590 1589 1590 1591 1596 1602 1598 1602 1598 1598 1597 1588 1583 1583 1583 1583 1586 1590 1592 1593 1593 1592 1589 1587 1584 1580 1575 1569 1563 1557 1551 1544 1538 1531 1524 1517 1510 1503 1496 1488 1481
1594 1596 1591 1590 1591 1593 1593 1595 1605 1607 1608 1605 1598 1596 1584 1583 1582 1581 1581 1584 1587 1589 1590 1590 1589 1587 1584 1581 1577 1571 1566 1560 1554 1548 1542 1536 1529 1523 1516 1510 1503 1496 1488 1481
1597 1596 1591 1591 1591 1592 1594 1602 1601 1610 1611 1613 1601 1590 1581 1582 1582 1581 1581 1583 1585 1586 1587 1587 1586 1584 1582 1578 1574 1569 1564 1558 1552 1546 1540 1533 1527 1521 1514 1508 1502 1495 1488 1480
1597 1599 1592 1592 1592 1594 1595 1601 1608 1610 1609 1609 1599 1591 1582 1578 1579 1579 1579 1580 1581 1584 1584 1584 1583 1581 1579 1576 1571 1567 1562 1556 1551 1545 1538 1532 1526 1519 1513 1507 1500 1493 1486 1479
1598 1601 1596 1593 1594 1593 1598 1601 1605 1613 1612 1612 1609 1586 1571 1568 1569 1571 1573 1575 1578 1580 1581 1581 1580 1579 1576 1573 1569 1565 1560 1554 1549 1543 1537 1531 1524 1518 1512 1505 1499 1492 1485 1478
1600 1604 1602 1595 1593 1592 1592 1595 1603 1604 1607 1614 1617 1588 1567 1566 1564 1565 1568 1572 1575 1577 1578 1578 1578 1576 1574 1570 1567 1562 1558 1553 1547 1541 1536 1530 1523 1517 1510 1504 1498 1492 1485 1478
1599 1602 1602 1594 1596 1594 1594 1594 1597 1602 1608 1617 1613 1581 1566 1564 1563 1563 1565 1568 1572 1574 1575 1575 1575 1573 1571 1568 1564 1560 1556 1551 1546 1540 1535 1529 1522 1515 1509 1503 1497 1491 1485 1478
1596 1601 1602 1595 1591 1590 1591 1592 1596 1599 1604 1606 1598 1573 1560 1563 1562 1561 1563 1565 1568 1570 1571 1572 1571 1570 1568 1565 1562 1558 1554 1550 1545 1539 1534 1527 1521 1515 1509 1503 1497 1491 1485 1479
1595 1599 1598 1595 1592 1592 1590 1588 1591 1593 1590 1590 1577 1570 1553 1553 1554 1554 1558 1562 1565 1566 1568 1568 1568 1567 1565 1563 1560 1557 1553 1548 1544 1538 1533 1527 1521 1515 1509 1503 1497 1491 1486 1480
1595 1597 1597 1593 1588 1590 1588 1582 1584 1585 1583 1581 1574 1562 1547 1548 1548 1550 1554 1557 1559 1562 1563 1564 1564 1564 1562 1561 1558 1555 1551 1547 1542 1537 1532 1526 1520 1514 1508 1503 1497 1492 1486 1480
1596 1596 1595 1594 1589 1584 1576 1564 1572 1572 1569 1568 1564 1551 1546 1546 1546 1545 1548 1551 1554 1557 1559 1560 1561 1561 1560 1558 1556 1553 1549 1546 1542 1537 1531 1526 1520 1514 1508 1503 1497 1491 1486 1481
1594 1596 1599 1600 1590 1577 1558 1557 1558 1560 1556 1555 1550 1543 1543 1542 1542 1542 1544 1547 1550 1553 1555 1556 1557 1557 1557 1555 1554 1551 1548 1545 1541 1536 1531 1525 1520 1514 1508 1503 1497 1491 1486 1481
1590 1594 1599 1601 1595 1581 1559 1555 1557 1557 1551 1541 1541 1537 1539 1539 1541 1540 1540 1543 1547 1549 1551 1553 1554 1554 1554 1553 1551 1549 1547 1543 1539 1535 1530 1524 1519 1514 1508 1502 1497 1491 1486 1481
1592 1593 1600 1602 1589 1580 1553 1552 1552 1555 1551 1533 1533 1532 1535 1539 1543 1534 1533 1537 1542 1545 1547 1549 1550 1551 1551 1550 1549 1547 1545 1542 1538 1533 1528 1524 1519 1514 1509 1503 1497 1492 1486 1481
1594 1596 1598 1600 1593 1571 1549 1549 1553 1556 1541 1528 1526 1526 1528 1529 1528 1528 1529 1532 1537 1541 1543 1545 1546 1547 1548 1548 1547 1545 1543 1540 1536 1532 1528 1523 1519 1514 1509 1504 1498 1492 1487 1482
1579 1589 1593 1594 1593 1567 1542 1545 1545 1533 1522 1522 1521 1521 1521 1521 1522 1524 1526 1529 1533 1536 1539 1541 1542 1544 1544 1544 1544 1543 1541 1538 1535 1531 1527 1523 1518 1514 1508 1503 1498 1493 1487 1481
1563 1559 1561 1561 1547 1530 1527 1524 1521 1520 1518 1517 1516 1516 1516 1516 1517 1520 1523 1526 1529 1532 1535 1537 1539 1540 1541 1541 1541 1540 1539 1537 1534 1530 1526 1522 1518 1514 1508 1503 1497 1492 1486 1480
1550 1548 1550 1549 1530 1521 1520 1517 1515 1514 1512 1511 1511 1511 1511 1511 1513 1516 1519 1522 1525 1528 1531 1533 1535 1536 1537 1538 1538 1538 1537 1534 1532 1529 1525 1521 1517 1513 1508 1502 1497 1491 1485 1480
1534 1541 1542 1537 1521 1515 1509 1507 1507 1506 1505 1505 1504 1504 1505 1506 1508 1511 1513 1516 1520 1523 1527 1529 1531 1532 1534 1534 1535 1535 1534 1532 1530 1527 1524 1520 1516 1511 1507 1502 1497 1491 1486 1482
1523 1525 1528 1517 1507 1508 1503 1501 1501 1500 1498 1498 1497 1497 1498 1500 1503 1506 1508 1512 1515 1519 1522 1524 1527 1528 1530 1531 1531 1532 1531 1530 1528 1525 1522 1519 1515 1510 1506 1501 1497 1493 1487 1482